Location: Gebenbach
(49.5378°N, 11.8735°E)
Time: 02:52:32
(UTC+00:00)

Lacrosse 5 - Pass Details

Date: 29 October 2020
Orbit: 716 x 723 km, 57.0° (Epoch: 06 November)

Event Time Altitude Azimuth Distance (km) Brightness Sun altitude
Rises 19:55:46 0° 303° (WNW) 3,127 6.1 -38.8°
Reaches altitude 10° 19:58:09 10° 301° (WNW) 2,204 5.1 -39.1°
Enters shadow 19:59:23 18° 299° (WNW) 1,740 4.4 -39.3°
